Salt Lake City, UT

9:06 AM MDT on June 21, 2018 (GMT -0600)
Salt Lake City International

Weather History for KSLC - November, 2017

Change the Weather History Date:

Wednesday, November 15, 2017

  Actual Average Record
Temperature  
Mean Temperature 49 °F 40 °F  
Max Temperature 61 °F 50 °F 73 °F (2016)
Min Temperature 36 °F 31 °F -10 °F (1955)
Degree Days  
Heating Degree Days 16 25  
Month to date heating degree days 257 323  
Since 1 July heating degree days 768 791  
Cooling Degree Days 0 0  
Month to date cooling degree days 0 0  
Year to date cooling degree days 1758 1160  
Moisture  
Dew Point 30 °F    
Average Humidity 50    
Maximum Humidity 70    
Minimum Humidity 29    
Precipitation  
Precipitation 0.00 in 0.05 in 0.93 in (1952)
Month to date precipitation 0.06 0.75  
Year to date precipitation 14.11 13.99  
Snow  
Snow 0.00 in 0.30 in 9.50 in (1958)
Month to date snowfall 0.0 2.6  
Since 1 July snowfall T 4.0  
Snow Depth 0.00 in    
Sea Level Pressure  
Sea Level Pressure 29.98 in    
Wind  
Wind Speed 4 mph (SSE)    
Max Wind Speed 12 mph    
Max Gust Speed 14 mph    
Visibility 10 miles    
Events      
T = Trace of Precipitation, MM = Missing Value Source: NWS Daily Summary

Daily Weather History Graph

Daily Weather History Graph

Search for Another Location

Airport or City:

Astronomy

Nov. 15, 2017 Rise Set
Actual Time 7:15 AM MST 5:09 PM MST
Civil Twilight 6:45 AM MST 5:38 PM MST
Nautical Twilight 6:12 AM MST 6:12 PM MST
Astronomical Twilight 5:40 AM MST 6:44 PM MST
Moon 4:18 AM MST (11/15) 4:07 PM MST (11/15)
Length of Visible Light 10h 52m
Length of Day
9h 54m
Waning Crescent, 7% of the Moon is Illuminated
Nov 15
Waning Crescent
Nov 18
New
Nov 26
First Quarter
Dec 3
Full
Dec 10
Last Quarter

Hourly Weather History & Observations

Time (MST) Temp. Windchill Dew Point Humidity Pressure Visibility Wind Dir Wind Speed Gust Speed Precip Events Conditions
12:54 AM 37.9 °F 34.4 °F 28.9 °F 70% 30.15 in 10.0 mi North 4.6 mph - N/A   Partly Cloudy
1:54 AM 37.0 °F 32.4 °F 28.9 °F 73% 30.12 in 10.0 mi South 5.8 mph - N/A   Partly Cloudy
2:54 AM 37.0 °F 32.4 °F 28.9 °F 73% 30.12 in 10.0 mi East 5.8 mph - N/A   Partly Cloudy
3:54 AM 37.9 °F - 30.0 °F 73% 30.11 in 10.0 mi Calm Calm - N/A   Partly Cloudy
4:54 AM 39.0 °F 34.8 °F 28.9 °F 67% 30.09 in 10.0 mi SSE 5.8 mph - N/A   Partly Cloudy
5:54 AM 39.9 °F 35.8 °F 30.0 °F 68% 30.09 in 10.0 mi East 5.8 mph - N/A   Scattered Clouds
6:54 AM 42.1 °F 37.1 °F 30.9 °F 65% 30.07 in 10.0 mi ESE 8.1 mph - N/A   Mostly Cloudy
7:54 AM 43.0 °F 39.5 °F 30.0 °F 60% 30.08 in 10.0 mi SE 5.8 mph - N/A   Mostly Cloudy
8:54 AM 45.0 °F - 30.9 °F 58% 30.07 in 10.0 mi Calm Calm - N/A   Mostly Cloudy
9:54 AM 46.9 °F - 30.9 °F 54% 30.07 in 10.0 mi Calm Calm - N/A   Mostly Cloudy
10:54 AM 50.0 °F - 28.9 °F 44% 30.04 in 10.0 mi Calm Calm - N/A   Mostly Cloudy
11:54 AM 52.0 °F - 27.0 °F 38% 30.00 in 10.0 mi Calm Calm - N/A   Mostly Cloudy
12:54 PM 53.1 °F - 30.9 °F 43% 29.99 in 10.0 mi NNW 8.1 mph - N/A   Mostly Cloudy
1:54 PM 55.9 °F - 28.9 °F 36% 29.94 in 10.0 mi South 3.5 mph - N/A   Mostly Cloudy
2:54 PM 59.0 °F - 28.9 °F 32% 29.92 in 10.0 mi West 3.5 mph - N/A   Mostly Cloudy
3:54 PM 60.1 °F - 28.0 °F 30% 29.90 in 10.0 mi Calm Calm - N/A   Mostly Cloudy
4:54 PM 52.0 °F - 36.0 °F 54% 29.90 in 10.0 mi WNW 9.2 mph - N/A   Mostly Cloudy
5:54 PM 50.0 °F - 36.0 °F 59% 29.91 in 10.0 mi NW 6.9 mph - N/A   Mostly Cloudy
6:54 PM 46.0 °F 43.9 °F 36.0 °F 68% 29.90 in 10.0 mi SSW 4.6 mph - N/A   Mostly Cloudy
7:54 PM 48.9 °F - 36.0 °F 61% 29.85 in 10.0 mi SSE 8.1 mph - N/A   Mostly Cloudy
8:54 PM 52.0 °F - 33.1 °F 49% 29.83 in 10.0 mi SSE 4.6 mph - N/A   Mostly Cloudy
9:54 PM 52.0 °F - 32.0 °F 47% 29.82 in 10.0 mi SSW 3.5 mph - N/A   Mostly Cloudy
10:54 PM 60.1 °F - 25.0 °F 26% 29.79 in 10.0 mi South 16.1 mph 24.2 mph N/A   Mostly Cloudy
11:54 PM 61.0 °F - 23.0 °F 23% 29.78 in 10.0 mi SSE 19.6 mph 26.5 mph N/A   Mostly Cloudy